[[{"header":{"parameterUnit":"m.s-1","parameterCategory":2,"la1":30.2991,"la2":30.254,"lo1":-89.0895,"lo2":-89.0444,"dy":0.0017,"dx":0.0017,"nx":28,"ny":28,"refTime":"2025-11-30T09:00:00:Z","depth":"0","parameterNumber":2,"parameterNumberName":"U-component_of_CURRENTS"},"data":[0,0,0,0,0,0,0,0,0,0,0,0,0,0,0,0,0,0,0,0,0,0,0,0,0,0,0,0,0,0,0,0,0,0,0,0,0,0,0,0,0,0,0,0,0,0,0,0,0,0,0,0,0,0,0,0,0,0,0.2242,0.2242,0,0.2249,0.2249,0.2249,0.2238,0.2238,0.2238,0.2238,0.2185,0.2183,0.2182,0,0,0,0,0,0,0,0,0,0,0,0,0,0.2218,0.2218,0.2242,0.2242,0.2243,0.2249,0.2249,0.2249,0.2238,0.2238,0.2238,0.2238,0.2185,0.2183,0.2182,0,0,0,0,0,0,0,0,0,0,0,0,0,0.2225,0.2218,0.2242,0.224,0.224,0.2249,0.2249,0.2249,0.2238,0.2238,0.2238,0.2238,0.2185,0.2184,0.2182,0.2175,0,0,0.2176,0.2175,0,0,0,0,0,0,0,0,0.2225,0.2226,0.224,0.224,0.224,0.2244,0.2221,0.2222,0.2238,0.2237,0.2238,0.2237,0.2201,0.2197,0.2197,0.2173,0.2171,0.2176,0.2175,0.2174,0.2173,0,0,0,0,0,0,0,0.2224,0.2225,0.2243,0.224,0.224,0.2238,0.2238,0.2221,0.2217,0.2237,0.2237,0.2241,0.22,0.2199,0.2196,0.217,0.2176,0.2174,0.2173,0.2172,0.216,0.2161,0,0,0,0,0,0,0.2228,0.2225,0.2242,0.2243,0.2234,0.2239,0.2239,0.2241,0.2219,0.2216,0.2241,0.224,0.2202,0.2198,0.2194,0.2204,0.2174,0.2172,0.2171,0.216,0.2161,0.2161,0,0,0,0,0,0,0.2227,0.2229,0.2242,0.2236,0.2238,0.224,0.2242,0.2242,0.2243,0.2223,0.2219,0.2243,0.2202,0.2196,0.2182,0.2201,0.2171,0.217,0.2159,0.216,0.2161,0.2211,0,0,0,0,0,0,0.2227,0.2229,0.2232,0.2236,0.2238,0.225,0.2243,0.2242,0.2247,0.2246,0.2223,0.2218,0.2201,0.2185,0.218,0.2198,0.2168,0.2158,0.2159,0.2161,0.2209,0.2214,0.2219,0,0,0,0,0,0.2226,0.223,0.2232,0.2234,0.2242,0.225,0.2251,0.225,0.2247,0.2249,0.2235,0.2219,0.2191,0.2183,0.2178,0.2195,0.2157,0.2159,0.2161,0.2206,0.2213,0.2219,0,0,0,0,0,0,0.2214,0.2229,0.2232,0.2238,0.2246,0.2249,0.2254,0.2253,0.2245,0.2243,0.2221,0.2214,0.2211,0.2195,0.2187,0.2198,0.2175,0.2176,0.2212,0.2218,0.2223,0.2231,0.2167,0,0,0,0,0,0.2216,0.2225,0.2236,0.2241,0.2248,0.2252,0.2255,0.2257,0.2252,0.2249,0.2233,0.2221,0.2215,0.2209,0.2196,0.2196,0.22,0.2207,0.2212,0.2216,0.222,0.2249,0.2257,0.2167,0.2167,0.2167,0,0,0.221,0.2222,0.2225,0.224,0.2247,0.2258,0.2253,0.2263,0.227,0.2243,0.2243,0.2233,0.2218,0.2221,0.222,0.221,0.2245,0.2219,0.2223,0.2224,0.2252,0.2261,0.2269,0.2169,0.2168,0.2168,0,0,0.2207,0.2218,0.2227,0.2239,0.2257,0.2264,0.2268,0.2276,0.2278,0.2278,0.2267,0.2271,0.225,0.2254,0.2251,0.2276,0.2269,0.2273,0.2306,0.2335,0.2343,0.2349,0.2371,0.2379,0.2278,0.2278,0.2279,0,0.2199,0.2214,0.2229,0.2244,0.2256,0.2268,0.2279,0.2287,0.2286,0.2296,0.2282,0.2285,0.2269,0.2291,0.2301,0.2289,0.23,0.2284,0.2343,0.2349,0.2355,0.2376,0.2384,0.2281,0.2281,0.2281,0.228,0,0.2207,0.2219,0.2227,0.2253,0.2267,0.2279,0.2299,0.2312,0.2317,0.2325,0.2344,0.2332,0.2339,0.2339,0.2323,0.2365,0.2358,0.2345,0.2329,0.2368,0.2386,0.2394,0.2285,0.2284,0.2283,0.2282,0,0,0.2177,0.2223,0.2224,0.2241,0.2274,0.2286,0.2313,0.234,0.2362,0.237,0.2397,0.2399,0.2405,0.2402,0.2396,0.2418,0.247,0.2402,0.2402,0.2426,0.2534,0.2536,0.2545,0.247,0.2472,0.2473,0.2531,0,0.2174,0.2207,0.2229,0.2254,0.2274,0.2303,0.2327,0.2358,0.2378,0.2407,0.2425,0.2439,0.2427,0.2432,0.2459,0.2464,0.2493,0.2455,0.2489,0.249,0.2491,0.2555,0.2517,0.2567,0.2539,0.254,0.2541,0,0.2167,0.2196,0.2223,0.2269,0.2279,0.2294,0.2346,0.237,0.2422,0.244,0.2477,0.2485,0.2527,0.2501,0.2557,0.2535,0.2541,0.2544,0.2546,0.2536,0.2508,0.2522,0.2582,0.2556,0.2553,0.2552,0.2552,0,0.2143,0.2185,0.2209,0.2224,0.2279,0.2296,0.2325,0.2378,0.2406,0.2463,0.2492,0.2539,0.2569,0.259,0.2609,0.2585,0.2666,0.2632,0.2643,0.2643,0.261,0.2605,0.2651,0.2674,0.2674,0.2673,0.2673,0,0.2131,0.2144,0.2199,0.2213,0.2239,0.2285,0.2316,0.2356,0.2418,0.2462,0.2507,0.2555,0.2593,0.2641,0.264,0.2683,0.2699,0.2667,0.2668,0.2627,0.2622,0.2595,0.2568,0.2676,0.2675,0.2675,0.2674,0,0.2087,0.2129,0.2152,0.2211,0.2227,0.2242,0.2299,0.2328,0.2398,0.246,0.2481,0.2581,0.2655,0.269,0.2737,0.2733,0.2704,0.2762,0.2711,0.2705,0.2675,0.265,0.2604,0.2498,0.2782,0.2783,0.2783,0,0.2062,0.2077,0.2133,0.2148,0.2168,0.2201,0.2227,0.2301,0.2343,0.2476,0.251,0.2613,0.2688,0.2779,0.2798,0.2825,0.273,0.2782,0.2727,0.2691,0.2664,0.2564,0.2469,0.2704,0.2704,0.2703,0.2703,0,0.2017,0.2039,0.2067,0.2103,0.2127,0.215,0.2201,0.2231,0.2336,0.2402,0.2515,0.259,0.2728,0.2768,0.2822,0.2822,0.2685,0.2779,0.2757,0.263,0.2508,0.24,0.2642,0.2702,0.2702,0.2702,0.2702,0.2702,0.1972,0.1979,0.2029,0.2049,0.208,0.2101,0.2095,0.2174,0.2235,0.2322,0.2444,0.2534,0.2697,0.2789,0.2771,0.2764,0.2689,0.2701,0.2683,0.2591,0.2465,0.2706,0.2755,0.2755,0.2756,0.2756,0.2756,0,0.1922,0.1949,0.1974,0.2001,0.2002,0.2037,0.2078,0.2071,0.2117,0.2225,0.2302,0.2477,0.2578,0.268,0.2763,0.2688,0.2547,0.2625,0.248,0.2389,0.2642,0.2616,0.2617,0.2617,0.2617,0.2617,0.2617,0.2617,0.1903,0.1913,0.1931,0.1921,0.193,0.1891,0.189,0.1909,0.1966,0.2042,0.2128,0.2218,0.2513,0.2751,0.2748,0.2676,0.2447,0.2406,0.2319,0.2538,0.2543,0.2548,0.2519,0.25,0.2499,0.1986,0.1983,0.198]},{"header":{"parameterUnit":"m.s-1","parameterCategory":2,"la1":30.2991,"la2":30.254,"lo1":-89.0895,"lo2":-89.0444,"dy":0.0017,"dx":0.0017,"nx":28,"ny":28,"refTime":"2025-11-30T09:00:00:Z","depth":"0","parameterNumber":3,"parameterNumberName":"V-component_of_CURRENTS"},"data":[0,0,0,0,0,0,0,0,0,0,0,0,0,0,0,0,0,0,0,0,0,0,0,0,0,0,0,0,0,0,0,0,0,0,0,0,0,0,0,0,0,0,0,0,0,0,0,0,0,0,0,0,0,0,0,0,0,0,-0.0386,-0.0387,0,-0.0475,-0.0476,-0.0477,-0.0533,-0.0533,-0.0533,-0.0534,-0.0575,-0.0576,-0.0577,0,0,0,0,0,0,0,0,0,0,0,0,0,-0.0327,-0.0327,-0.0386,-0.0387,-0.0388,-0.0475,-0.0476,-0.0477,-0.0533,-0.0533,-0.0533,-0.0534,-0.0575,-0.0576,-0.0577,0,0,0,0,0,0,0,0,0,0,0,0,0,-0.0379,-0.0327,-0.0386,-0.0425,-0.043,-0.0475,-0.0476,-0.0478,-0.0533,-0.0533,-0.0533,-0.0534,-0.0574,-0.0576,-0.0577,-0.0579,0,0,-0.0581,-0.0582,0,0,0,0,0,0,0,0,-0.0376,-0.0381,-0.0418,-0.0423,-0.0427,-0.0492,-0.0471,-0.0509,-0.0533,-0.0495,-0.0534,-0.0534,-0.0542,-0.0546,-0.0564,-0.0581,-0.0583,-0.0581,-0.0582,-0.0583,-0.0583,0,0,0,0,0,0,0,-0.0372,-0.0378,-0.0422,-0.0419,-0.0425,-0.046,-0.0467,-0.0479,-0.0516,-0.0498,-0.0502,-0.051,-0.0544,-0.0563,-0.0566,-0.0584,-0.0581,-0.0582,-0.0583,-0.0584,-0.0607,-0.0607,0,0,0,0,0,0,-0.0355,-0.0374,-0.042,-0.0425,-0.04,-0.046,-0.0469,-0.0472,-0.0517,-0.0524,-0.051,-0.0512,-0.056,-0.0564,-0.0567,-0.0566,-0.0583,-0.0584,-0.0585,-0.0607,-0.0607,-0.0606,0,0,0,0,0,0,-0.0353,-0.0358,-0.0416,-0.0401,-0.0411,-0.046,-0.0464,-0.0474,-0.049,-0.0526,-0.0532,-0.0516,-0.0561,-0.0565,-0.0572,-0.0568,-0.0585,-0.0586,-0.0607,-0.0607,-0.0607,-0.0567,0,0,0,0,0,0,-0.0351,-0.0357,-0.0357,-0.0399,-0.0411,-0.0436,-0.0464,-0.0475,-0.0494,-0.0499,-0.0533,-0.0538,-0.0561,-0.057,-0.0573,-0.057,-0.0587,-0.0607,-0.0607,-0.0607,-0.0568,-0.0565,-0.0562,0,0,0,0,0,-0.0349,-0.0346,-0.0357,-0.0363,-0.0408,-0.0436,-0.0445,-0.0483,-0.0494,-0.0499,-0.052,-0.0537,-0.057,-0.057,-0.0575,-0.0572,-0.0608,-0.0607,-0.0607,-0.057,-0.0566,-0.0562,0,0,0,0,0,0,-0.0323,-0.0353,-0.0365,-0.0373,-0.0398,-0.0444,-0.0457,-0.0476,-0.0499,-0.0501,-0.0531,-0.0537,-0.0543,-0.056,-0.056,-0.0578,-0.0593,-0.0593,-0.0563,-0.056,-0.0557,-0.054,-0.0588,0,0,0,0,0,-0.0316,-0.032,-0.0354,-0.0359,-0.0371,-0.041,-0.0427,-0.0448,-0.0474,-0.0486,-0.0507,-0.0529,-0.0546,-0.0553,-0.0571,-0.0576,-0.0587,-0.0578,-0.0575,-0.0573,-0.0562,-0.0575,-0.0571,-0.0605,-0.0605,-0.0605,0,0,-0.0307,-0.0324,-0.0326,-0.0353,-0.0379,-0.0389,-0.0421,-0.0441,-0.0445,-0.0484,-0.0492,-0.0516,-0.0544,-0.0554,-0.0559,-0.0567,-0.0569,-0.0572,-0.0569,-0.056,-0.0574,-0.057,-0.0567,-0.0605,-0.0605,-0.0605,0,0,-0.0287,-0.0306,-0.0302,-0.0319,-0.0348,-0.0374,-0.0373,-0.0411,-0.0425,-0.0436,-0.0464,-0.0481,-0.0508,-0.0528,-0.0542,-0.053,-0.0552,-0.0539,-0.0511,-0.0523,-0.052,-0.0518,-0.0527,-0.0526,-0.0539,-0.0539,-0.0539,0,-0.0274,-0.0276,-0.0306,-0.0307,-0.0316,-0.036,-0.0356,-0.0378,-0.041,-0.041,-0.043,-0.0469,-0.0495,-0.0504,-0.0508,-0.0522,-0.0531,-0.0522,-0.0518,-0.0516,-0.0515,-0.0524,-0.0523,-0.0537,-0.0537,-0.0537,-0.0537,0,-0.0255,-0.0256,-0.0257,-0.027,-0.0282,-0.0289,-0.0317,-0.0324,-0.0346,-0.0366,-0.0377,-0.0419,-0.0439,-0.0457,-0.0481,-0.0483,-0.0494,-0.0512,-0.0525,-0.0509,-0.052,-0.052,-0.0534,-0.0535,-0.0535,-0.0536,0,0,-0.0221,-0.0239,-0.0238,-0.023,-0.0262,-0.0264,-0.0268,-0.0279,-0.0268,-0.0309,-0.0301,-0.0347,-0.0371,-0.0387,-0.0423,-0.0442,-0.0446,-0.047,-0.0472,-0.0473,-0.0469,-0.0489,-0.0491,-0.0464,-0.0464,-0.0463,-0.0482,0,-0.0196,-0.0184,-0.0202,-0.0184,-0.0179,-0.0208,-0.0202,-0.0214,-0.0234,-0.0236,-0.0283,-0.0293,-0.0344,-0.0354,-0.0381,-0.0428,-0.0444,-0.0439,-0.0489,-0.049,-0.0506,-0.0491,-0.0512,-0.0532,-0.0482,-0.0482,-0.0482,0,-0.0169,-0.0163,-0.0143,-0.0129,-0.0128,-0.0121,-0.0111,-0.0113,-0.0131,-0.0148,-0.0174,-0.021,-0.0245,-0.0292,-0.0358,-0.0353,-0.0402,-0.0444,-0.0446,-0.0476,-0.051,-0.0541,-0.0533,-0.0702,-0.0482,-0.0482,-0.0482,0,-0.0124,-0.0116,-0.0095,-0.0094,-0.0091,-0.0073,-0.0072,-0.008,-0.0067,-0.009,-0.0087,-0.0139,-0.0158,-0.0229,-0.032,-0.0337,-0.0392,-0.0425,-0.0487,-0.0489,-0.0522,-0.0527,-0.0678,-0.0461,-0.0461,-0.0461,-0.0461,0,-0.0089,-0.0064,-0.0067,-0.0051,-0.0011,-0.0023,0.0017,0.0008,0.0008,0.0034,-0.0035,-0.0024,-0.0143,-0.0191,-0.0286,-0.0381,-0.0364,-0.0473,-0.0492,-0.0509,-0.0513,-0.0674,-0.077,-0.0462,-0.0462,-0.0462,-0.0462,0,-0.0039,-0.0046,-0.0012,0.0002,0.0012,0.0043,0.0071,0.0102,0.0089,0.012,0.0117,0.0067,0.0002,-0.0116,-0.0226,-0.0326,-0.0521,-0.0458,-0.0469,-0.0489,-0.0716,-0.0808,-0.0957,-0.1034,-0.0532,-0.0533,-0.0534,0,-0.0014,0.0004,0.0029,0.0056,0.0067,0.0106,0.0137,0.0138,0.0175,0.0184,0.0213,0.016,0.0141,-0.0036,-0.0221,-0.0384,-0.0535,-0.0519,-0.056,-0.0727,-0.0844,-0.0905,-0.0963,-0.0589,-0.059,-0.0591,-0.0591,0,0.0036,0.0041,0.0068,0.0113,0.0153,0.0197,0.0247,0.0288,0.0302,0.0332,0.0371,0.0358,0.0187,0.0017,-0.0221,-0.0355,-0.0662,-0.0539,-0.0714,-0.09,-0.0975,-0.1057,-0.0579,-0.0598,-0.0597,-0.0597,-0.0596,-0.0596,0.0075,0.0097,0.0124,0.0171,0.022,0.0284,0.0325,0.0387,0.0451,0.0503,0.0502,0.0494,0.0218,-0.0108,-0.0307,-0.0722,-0.0711,-0.0853,-0.0948,-0.099,-0.1082,-0.0615,-0.0657,-0.0657,-0.0657,-0.0656,-0.0656,0,0.011,0.013,0.0177,0.0229,0.0284,0.0301,0.0392,0.0426,0.0505,0.0581,0.0617,0.0462,0.0127,-0.0239,-0.0764,-0.1062,-0.1181,-0.1251,-0.1362,-0.1398,-0.0984,-0.1006,-0.1125,-0.1125,-0.1125,-0.1124,-0.1124,-0.1124,0.0126,0.017,0.0183,0.0266,0.0307,0.0382,0.0429,0.048,0.0541,0.057,0.0564,0.0547,0.0183,-0.0661,-0.1322,-0.1479,-0.1722,-0.1773,-0.1878,-0.1627,-0.1597,-0.1569,-0.1613,-0.1858,-0.1859,-0.2253,-0.2257,-0.226]}],[{"header":{"parameterUnit":"m.s-1","parameterCategory":2,"la1":30.2991,"la2":30.254,"lo1":-89.0895,"lo2":-89.0444,"dy":0.0017,"dx":0.0017,"nx":28,"ny":28,"refTime":"2025-11-30T09:00:00:Z","depth":"2","parameterNumber":2,"parameterNumberName":"U-component_of_CURRENTS"},"data":[0,0,0,0,0,0,0,0,0,0,0,0,0,0,0,0,0,0,0,0,0,0,0,0,0,0,0,0,0,0,0,0,0,0,0,0,0,0,0,0,0,0,0,0,0,0,0,0,0,0,0,0,0,0,0,0,0,0,0.2248,0.2248,0,0.226,0.226,0.2259,0.225,0.2249,0.2249,0.2249,0.2198,0.2197,0.2196,0,0,0,0,0,0,0,0,0,0,0,0,0,0.2218,0.2218,0.2248,0.2248,0.2248,0.226,0.226,0.2259,0.225,0.2249,0.2249,0.2249,0.2198,0.2197,0.2196,0,0,0,0,0,0,0,0,0,0,0,0,0,0.2228,0.2218,0.2248,0.2247,0.2247,0.226,0.226,0.2259,0.225,0.2249,0.2249,0.2249,0.2199,0.2197,0.2195,0.2189,0,0,0.219,0.2189,0,0,0,0,0,0,0,0,0.2227,0.2229,0.2247,0.2247,0.2247,0.2255,0.2231,0.2234,0.225,0.2246,0.2249,0.2249,0.2213,0.221,0.221,0.2187,0.2185,0.219,0.2189,0.2188,0.2187,0,0,0,0,0,0,0,0.2227,0.2228,0.225,0.2247,0.2247,0.2247,0.2247,0.2231,0.2228,0.2246,0.2246,0.2252,0.2212,0.2212,0.2209,0.2184,0.219,0.2188,0.2187,0.2186,0.2176,0.2177,0,0,0,0,0,0,0.2231,0.2228,0.2249,0.225,0.2239,0.2248,0.2248,0.2251,0.2229,0.2227,0.2252,0.2251,0.2215,0.2211,0.2207,0.2218,0.2188,0.2186,0.2185,0.2175,0.2176,0.2177,0,0,0,0,0,0,0.223,0.2232,0.2249,0.2241,0.2244,0.2249,0.2251,0.2251,0.2253,0.2235,0.2231,0.2255,0.2215,0.2209,0.2195,0.2215,0.2185,0.2184,0.2175,0.2176,0.2177,0.2228,0,0,0,0,0,0,0.2229,0.2232,0.2236,0.2242,0.2245,0.2258,0.2252,0.2252,0.2258,0.2257,0.2235,0.2231,0.2214,0.2198,0.2194,0.2212,0.2182,0.2174,0.2175,0.2177,0.2225,0.223,0.2235,0,0,0,0,0,0.2228,0.2233,0.2236,0.2239,0.2249,0.2258,0.2259,0.226,0.2259,0.226,0.2247,0.2231,0.2205,0.2197,0.2192,0.221,0.2173,0.2175,0.2176,0.2223,0.2229,0.2235,0,0,0,0,0,0,0.2217,0.2233,0.2236,0.2244,0.2253,0.2258,0.2264,0.2264,0.2256,0.2256,0.2233,0.2227,0.2225,0.2209,0.2201,0.2213,0.219,0.2191,0.2227,0.2233,0.2238,0.2245,0.2181,0,0,0,0,0,0.2219,0.2229,0.2241,0.2247,0.2255,0.226,0.2265,0.2267,0.2263,0.2261,0.2246,0.2235,0.2229,0.2223,0.2211,0.2212,0.2214,0.2223,0.2228,0.2233,0.2235,0.2264,0.2272,0.2183,0.2183,0.2183,0,0,0.2214,0.2227,0.223,0.2246,0.2254,0.2266,0.2262,0.2274,0.2282,0.2255,0.2256,0.2247,0.2232,0.2236,0.2235,0.2225,0.226,0.2235,0.2239,0.2239,0.2267,0.2276,0.2283,0.2185,0.2184,0.2184,0,0,0.2213,0.2225,0.2234,0.2246,0.2266,0.2273,0.2278,0.2287,0.229,0.229,0.2281,0.2284,0.2265,0.2269,0.2266,0.2291,0.2284,0.2289,0.2322,0.235,0.2358,0.2365,0.2383,0.2391,0.2295,0.2295,0.2295,0,0.2205,0.2221,0.2237,0.2252,0.2264,0.2277,0.2289,0.2298,0.2299,0.2309,0.2295,0.23,0.2284,0.2306,0.2315,0.2304,0.2314,0.23,0.2358,0.2364,0.2371,0.2388,0.2396,0.2297,0.2297,0.2297,0.2296,0,0.2214,0.2227,0.2236,0.2261,0.2276,0.2289,0.2309,0.2322,0.2329,0.2339,0.2358,0.2346,0.2353,0.2354,0.2338,0.238,0.2372,0.236,0.2344,0.2383,0.2398,0.2406,0.2301,0.23,0.2299,0.2299,0,0,0.2185,0.2231,0.2232,0.2249,0.2282,0.2295,0.2322,0.235,0.2373,0.2382,0.241,0.2412,0.2418,0.2416,0.241,0.2432,0.2482,0.2416,0.2416,0.2437,0.2543,0.2543,0.2551,0.2484,0.2485,0.2487,0.2538,0,0.2182,0.2215,0.2237,0.2262,0.2282,0.2311,0.2335,0.2367,0.2388,0.2418,0.2437,0.2452,0.244,0.2446,0.2472,0.2477,0.2504,0.2469,0.2499,0.25,0.2498,0.2561,0.2325,0.2352,0.2546,0.2547,0.2548,0,0.2175,0.2204,0.2231,0.2276,0.2287,0.2302,0.2353,0.2378,0.2432,0.245,0.2488,0.2497,0.2538,0.2513,0.2566,0.2546,0.2551,0.2553,0.2555,0.2542,0.2515,0.2343,0.2358,0.256,0.2559,0.2558,0.2558,0,0.2152,0.2193,0.2217,0.2232,0.2286,0.2303,0.2332,0.2386,0.2414,0.2473,0.2503,0.255,0.2579,0.2599,0.2616,0.2594,0.2669,0.2638,0.2644,0.2644,0.2442,0.2421,0.2677,0.2677,0.2677,0.2677,0.2677,0,0.214,0.2152,0.2207,0.2221,0.2247,0.2293,0.2323,0.2364,0.2426,0.2471,0.2517,0.2564,0.2603,0.2649,0.2646,0.2684,0.2701,0.2667,0.2667,0.2454,0.2435,0.2608,0.26,0.2679,0.2678,0.2678,0.2678,0,0.2096,0.2137,0.216,0.2218,0.2234,0.225,0.2307,0.2336,0.2406,0.2468,0.249,0.259,0.266,0.2693,0.2737,0.2732,0.2752,0.2755,0.2506,0.2477,0.2695,0.2688,0.2768,0.2769,0.2769,0.277,0.277,0,0.2071,0.2086,0.2141,0.2157,0.2175,0.2209,0.2235,0.231,0.2351,0.2483,0.2517,0.2617,0.2682,0.2766,0.2746,0.2757,0.2789,0.256,0.2482,0.2717,0.2709,0.2701,0.2694,0.2223,0.2219,0.2215,0.2213,0,0.2024,0.2047,0.2075,0.2111,0.2135,0.2158,0.2209,0.2239,0.2344,0.2404,0.2511,0.2575,0.267,0.2592,0.2627,0.2597,0.254,0.2497,0.28,0.2258,0.2213,0.2203,0.2211,0.2183,0.2186,0.2188,0.2189,0.2191,0.1981,0.1988,0.2037,0.2058,0.2088,0.2108,0.2101,0.2156,0.2209,0.2259,0.2408,0.2407,0.244,0.2376,0.232,0.2268,0.2447,0.2316,0.2321,0.2331,0.2281,0.2242,0.2206,0.2209,0.2211,0.2214,0.2216,0,0.1924,0.1959,0.1983,0.2008,0.1996,0.2043,0.2083,0.2033,0.204,0.2111,0.2157,0.1993,0.1962,0.1988,0.187,0.191,0.1833,0.1828,0.1684,0.1718,0.1747,0.166,0.1423,0.1421,0.1418,0.1416,0,0,0.1903,0.1909,0.1926,0.1907,0.1921,0.1878,0.1878,0.1814,0.1819,0.175,0.1721,0.1838,0.1936,0.1631,0.1619,0.1501,0.159,0.1444,0.2083,0.1947,0.1972,0.2041,0.195,0,0,0,0,0]},{"header":{"parameterUnit":"m.s-1","parameterCategory":2,"la1":30.2991,"la2":30.254,"lo1":-89.0895,"lo2":-89.0444,"dy":0.0017,"dx":0.0017,"nx":28,"ny":28,"refTime":"2025-11-30T09:00:00:Z","depth":"2","parameterNumber":3,"parameterNumberName":"V-component_of_CURRENTS"},"data":[0,0,0,0,0,0,0,0,0,0,0,0,0,0,0,0,0,0,0,0,0,0,0,0,0,0,0,0,0,0,0,0,0,0,0,0,0,0,0,0,0,0,0,0,0,0,0,0,0,0,0,0,0,0,0,0,0,0,-0.0304,-0.0305,0,-0.0392,-0.0393,-0.0394,-0.0451,-0.0451,-0.0451,-0.0451,-0.0494,-0.0495,-0.0495,0,0,0,0,0,0,0,0,0,0,0,0,0,-0.0245,-0.0245,-0.0304,-0.0305,-0.0306,-0.0392,-0.0393,-0.0395,-0.0451,-0.0451,-0.0451,-0.0452,-0.0494,-0.0495,-0.0496,0,0,0,0,0,0,0,0,0,0,0,0,0,-0.0296,-0.0245,-0.0304,-0.0344,-0.0349,-0.0392,-0.0393,-0.0395,-0.045,-0.0451,-0.0451,-0.0452,-0.0493,-0.0494,-0.0496,-0.0494,0,0,-0.05,-0.05,0,0,0,0,0,0,0,0,-0.0293,-0.0298,-0.0337,-0.0342,-0.0347,-0.0411,-0.0388,-0.0426,-0.045,-0.0412,-0.0451,-0.0452,-0.0461,-0.0465,-0.0482,-0.0496,-0.0498,-0.05,-0.05,-0.0501,-0.0501,0,0,0,0,0,0,0,-0.0289,-0.0295,-0.0339,-0.0338,-0.0344,-0.0379,-0.0386,-0.0396,-0.0432,-0.0416,-0.042,-0.0429,-0.0463,-0.048,-0.0483,-0.0499,-0.05,-0.0501,-0.0502,-0.0502,-0.0523,-0.0522,0,0,0,0,0,0,-0.0274,-0.0291,-0.0337,-0.0342,-0.032,-0.0379,-0.0387,-0.039,-0.0433,-0.0441,-0.0428,-0.0431,-0.0478,-0.0482,-0.0485,-0.0485,-0.0501,-0.0502,-0.0503,-0.0523,-0.0523,-0.0522,0,0,0,0,0,0,-0.0272,-0.0277,-0.0333,-0.0319,-0.0328,-0.0379,-0.0382,-0.0391,-0.0409,-0.0444,-0.045,-0.0437,-0.0479,-0.0483,-0.049,-0.0487,-0.0503,-0.0504,-0.0523,-0.0523,-0.0522,-0.0485,0,0,0,0,0,0,-0.027,-0.0275,-0.0277,-0.0317,-0.0328,-0.0353,-0.0382,-0.0393,-0.0414,-0.0419,-0.0453,-0.0458,-0.0479,-0.0488,-0.0491,-0.0489,-0.0505,-0.0523,-0.0523,-0.0523,-0.0487,-0.0484,-0.0481,0,0,0,0,0,-0.0267,-0.0266,-0.0276,-0.0282,-0.0327,-0.0353,-0.0361,-0.04,-0.0414,-0.0418,-0.044,-0.0456,-0.0488,-0.0488,-0.0492,-0.049,-0.0524,-0.0523,-0.0523,-0.0488,-0.0484,-0.0481,0,0,0,0,0,0,-0.0244,-0.0272,-0.0285,-0.0293,-0.0317,-0.0362,-0.0375,-0.0395,-0.0417,-0.0421,-0.045,-0.0456,-0.0462,-0.0479,-0.0478,-0.0496,-0.051,-0.051,-0.0482,-0.0479,-0.0476,-0.0459,-0.0506,0,0,0,0,0,-0.0237,-0.024,-0.0273,-0.0279,-0.0291,-0.033,-0.0347,-0.0369,-0.0394,-0.0406,-0.0427,-0.0449,-0.0464,-0.0472,-0.0488,-0.0493,-0.0503,-0.0496,-0.0493,-0.049,-0.048,-0.0492,-0.0489,-0.0521,-0.0521,-0.0521,0,0,-0.0229,-0.0245,-0.0248,-0.0274,-0.0299,-0.0309,-0.0342,-0.0362,-0.0366,-0.0404,-0.0413,-0.0436,-0.0462,-0.0472,-0.0477,-0.0485,-0.0487,-0.049,-0.0487,-0.0478,-0.0491,-0.0488,-0.0485,-0.052,-0.0521,-0.0521,0,0,-0.0211,-0.0229,-0.0226,-0.0241,-0.0271,-0.0295,-0.0296,-0.0333,-0.0347,-0.0358,-0.0386,-0.0403,-0.0429,-0.0447,-0.0459,-0.0448,-0.047,-0.0458,-0.0432,-0.0444,-0.0441,-0.0439,-0.0448,-0.0446,-0.0459,-0.0458,-0.0458,0,-0.0199,-0.02,-0.0229,-0.0229,-0.0238,-0.0283,-0.0279,-0.03,-0.0331,-0.0332,-0.0353,-0.039,-0.0416,-0.0422,-0.0426,-0.044,-0.0451,-0.0442,-0.0439,-0.0437,-0.0436,-0.0445,-0.0444,-0.0457,-0.0457,-0.0457,-0.0457,0,-0.018,-0.018,-0.0181,-0.0193,-0.0205,-0.0211,-0.0238,-0.0246,-0.0269,-0.0289,-0.03,-0.034,-0.036,-0.0378,-0.0402,-0.0403,-0.0415,-0.0432,-0.0446,-0.043,-0.0441,-0.0441,-0.0454,-0.0455,-0.0455,-0.0456,0,0,-0.0147,-0.0163,-0.0162,-0.0154,-0.0184,-0.0186,-0.0189,-0.02,-0.019,-0.0232,-0.0224,-0.0268,-0.0294,-0.0309,-0.0344,-0.0363,-0.0369,-0.0392,-0.0394,-0.0396,-0.0393,-0.0415,-0.0417,-0.0388,-0.0388,-0.0387,-0.0406,0,-0.0122,-0.0108,-0.0125,-0.0106,-0.0101,-0.0129,-0.0122,-0.0135,-0.0155,-0.0159,-0.0205,-0.0216,-0.0266,-0.0277,-0.0304,-0.035,-0.0366,-0.0362,-0.0411,-0.0413,-0.043,-0.0417,-0.0372,-0.0386,-0.0406,-0.0406,-0.0406,0,-0.0096,-0.0088,-0.0067,-0.0051,-0.005,-0.0043,-0.0033,-0.0034,-0.0053,-0.0071,-0.0098,-0.0134,-0.0169,-0.0216,-0.0281,-0.0277,-0.0327,-0.0368,-0.037,-0.0401,-0.0434,-0.0405,-0.0385,-0.0405,-0.0405,-0.0405,-0.0405,0,-0.0053,-0.0043,-0.002,-0.0018,-0.0013,0.0005,0.0005,-0.0002,0.001,-0.0014,-0.0012,-0.0064,-0.0084,-0.0155,-0.0246,-0.0262,-0.0316,-0.0349,-0.0413,-0.0415,-0.039,-0.0391,-0.0385,-0.0385,-0.0385,-0.0385,-0.0385,0,-0.0018,0.0007,0.0006,0.0024,0.0064,0.0053,0.0093,0.0083,0.0083,0.0108,0.0038,0.0049,-0.0069,-0.0118,-0.0212,-0.0307,-0.0289,-0.0399,-0.0419,-0.0377,-0.0377,-0.0406,-0.0408,-0.0386,-0.0386,-0.0386,-0.0386,0,0.0029,0.0025,0.0059,0.0075,0.0085,0.0115,0.0144,0.0175,0.0161,0.0191,0.0188,0.0138,0.0072,-0.0044,-0.0153,-0.0253,-0.0349,-0.0385,-0.033,-0.0343,-0.0448,-0.0448,-0.046,-0.0461,-0.0461,-0.0462,-0.0462,0,0.0054,0.0073,0.0098,0.0125,0.0137,0.0176,0.0207,0.0208,0.0246,0.0255,0.0284,0.023,0.0212,0.0035,-0.0135,-0.0293,-0.0335,-0.038,-0.0411,-0.0437,-0.0455,-0.0454,-0.0453,-0.0362,-0.0362,-0.0361,-0.0361,0,0.0104,0.0108,0.0136,0.0181,0.0221,0.0266,0.0316,0.0358,0.0372,0.0405,0.0446,0.0434,0.0273,0.0133,-0.0102,-0.0217,-0.0358,-0.0382,-0.0407,-0.0358,-0.0348,-0.0365,-0.0367,-0.0359,-0.0359,-0.0359,-0.0359,-0.0359,0.0141,0.0163,0.0191,0.0236,0.0286,0.0352,0.0395,0.0485,0.0556,0.0622,0.0584,0.0575,0.0401,0.0124,-0.008,-0.0318,-0.0327,-0.0414,-0.0413,-0.0412,-0.0406,-0.0399,-0.0417,-0.0417,-0.0418,-0.0418,-0.0419,0,0.0194,0.0195,0.0242,0.0297,0.0376,0.0371,0.0463,0.0562,0.0684,0.0709,0.0749,0.0609,0.0432,0.0204,-0.0127,-0.0332,-0.0344,-0.0411,-0.0369,-0.0369,-0.0371,-0.0361,-0.0361,-0.0361,-0.0362,-0.0362,0,0,0.0215,0.0268,0.0282,0.0379,0.0406,0.0488,0.0536,0.0709,0.0783,0.0869,0.0832,0.078,0.0503,0.0286,0.002,-0.0178,-0.024,-0.0224,-0.0248,-0.0168,-0.0167,-0.0347,-0.033,0,0,0,0,0]}],[{"header":{"parameterUnit":"m.s-1","parameterCategory":2,"la1":30.2991,"la2":30.254,"lo1":-89.0895,"lo2":-89.0444,"dy":0.0017,"dx":0.0017,"nx":28,"ny":28,"refTime":"2025-11-30T09:00:00:Z","depth":"4","parameterNumber":2,"parameterNumberName":"U-component_of_CURRENTS"},"data":[0,0,0,0,0,0,0,0,0,0,0,0,0,0,0,0,0,0,0,0,0,0,0,0,0,0,0,0,0,0,0,0,0,0,0,0,0,0,0,0,0,0,0,0,0,0,0,0,0,0,0,0,0,0,0,0,0,0,0.1287,0.1287,0,0.1282,0.1282,0.1282,0.1309,0.131,0.131,0.1311,0.1385,0.1386,0.1388,0,0,0,0,0,0,0,0,0,0,0,0,0,0.1281,0.1281,0.1287,0.1287,0.1287,0.1282,0.1282,0.1282,0.1309,0.131,0.1311,0.1311,0.1385,0.1386,0.1388,0,0,0,0,0,0,0,0,0,0,0,0,0,0.1281,0.1281,0.1287,0.1299,0.13,0.1282,0.1282,0.1282,0.1309,0.131,0.1311,0.1312,0.1384,0.1386,0.1388,0.1379,0,0,0.1394,0.1395,0,0,0,0,0,0,0,0,0.1281,0.1282,0.1298,0.1298,0.1299,0.1297,0.1307,0.1318,0.1309,0.1306,0.1311,0.1312,0.1361,0.1365,0.1362,0.1383,0.1386,0.1394,0.1395,0.1396,0.1397,0,0,0,0,0,0,0,0.1281,0.1282,0.1286,0.1297,0.1298,0.1291,0.1293,0.1309,0.133,0.1307,0.1308,0.1306,0.1363,0.136,0.1364,0.1387,0.1394,0.1396,0.1397,0.1398,0.1509,0.1511,0,0,0,0,0,0,0.1281,0.1282,0.1286,0.1286,0.1292,0.129,0.1292,0.1297,0.1329,0.1333,0.1305,0.1307,0.1356,0.1362,0.1367,0.1455,0.1396,0.1398,0.1399,0.1507,0.1509,0.1511,0,0,0,0,0,0,0.1281,0.1282,0.1287,0.1283,0.1283,0.129,0.1295,0.1296,0.1328,0.1326,0.1333,0.1339,0.1357,0.1364,0.1411,0.1454,0.1399,0.1401,0.1505,0.1508,0.151,0.1569,0,0,0,0,0,0,0.1281,0.1282,0.1297,0.1283,0.1283,0.1301,0.1294,0.1296,0.1322,0.1326,0.1357,0.1363,0.1359,0.1408,0.1413,0.1456,0.1402,0.1503,0.1506,0.1509,0.1565,0.1573,0.1581,0,0,0,0,0,0.1281,0.1284,0.1298,0.1299,0.13,0.1302,0.1302,0.131,0.1324,0.1342,0.1364,0.1363,0.1433,0.1411,0.1416,0.1461,0.1501,0.1505,0.1509,0.1561,0.1572,0.158,0,0,0,0,0,0,0.1283,0.1287,0.1302,0.1307,0.132,0.1307,0.1319,0.133,0.136,0.1376,0.138,0.1387,0.1445,0.1444,0.142,0.1503,0.147,0.1475,0.1508,0.1517,0.1525,0.1514,0.1404,0,0,0,0,0,0.1293,0.1305,0.1308,0.1319,0.1326,0.1334,0.1341,0.1353,0.1368,0.1383,0.1396,0.1424,0.1458,0.1482,0.1501,0.1544,0.1543,0.1579,0.1587,0.1594,0.1589,0.162,0.163,0.1524,0.1524,0.1524,0,0,0.1298,0.1301,0.131,0.1322,0.1332,0.1348,0.1342,0.1365,0.1387,0.1387,0.1426,0.1451,0.1476,0.1523,0.155,0.1534,0.1628,0.1599,0.1604,0.1596,0.1625,0.1635,0.1644,0.1527,0.1526,0.1526,0,0,0.1302,0.1321,0.1332,0.1347,0.137,0.1376,0.1394,0.1404,0.1422,0.1466,0.1473,0.1524,0.1566,0.1586,0.1607,0.1671,0.1666,0.1688,0.1723,0.1753,0.1762,0.1769,0.1797,0.1806,0.1695,0.1695,0.1695,0,0.1311,0.1325,0.1337,0.1351,0.1367,0.1396,0.1417,0.1436,0.1462,0.148,0.1494,0.1571,0.1597,0.1656,0.1682,0.169,0.1701,0.1685,0.1763,0.177,0.1776,0.1802,0.1812,0.1698,0.1698,0.1697,0.1697,0,0.132,0.1343,0.1351,0.1384,0.1404,0.143,0.1456,0.1487,0.1525,0.1542,0.1613,0.1646,0.1696,0.1719,0.1726,0.179,0.1782,0.1767,0.1735,0.179,0.1815,0.1824,0.1703,0.1702,0.1701,0.17,0,0,0.1307,0.135,0.1358,0.1382,0.1429,0.1443,0.149,0.1532,0.1572,0.1618,0.1667,0.1739,0.1764,0.1788,0.1808,0.1835,0.1905,0.1826,0.1826,0.1847,0.1976,0.186,0.1859,0.1904,0.1906,0.1907,0.1979,0,0.1317,0.1348,0.1371,0.1418,0.1437,0.1482,0.152,0.1567,0.1617,0.1669,0.1722,0.1782,0.179,0.1834,0.1866,0.1893,0.1929,0.1887,0.1924,0.1925,0.181,0.1865,0.1912,0.1986,0.1988,0.1989,0.199,0,0.1313,0.1338,0.138,0.1436,0.1451,0.1493,0.1569,0.1607,0.1682,0.1725,0.1794,0.1829,0.19,0.1894,0.1972,0.1947,0.1971,0.1982,0.1985,0.1856,0.1825,0.1916,0.2006,0.2004,0.2003,0.2002,0.2001,0,0.1286,0.1341,0.1379,0.1399,0.1468,0.1509,0.1559,0.1632,0.1669,0.1767,0.1814,0.1891,0.1951,0.1986,0.2031,0.2011,0.2098,0.2072,0.199,0.1983,0.2038,0.2029,0.2123,0.2123,0.2122,0.2122,0.2122,0,0.1266,0.13,0.1379,0.14,0.1456,0.1512,0.1582,0.1639,0.1722,0.1767,0.1848,0.1895,0.1977,0.2032,0.2054,0.2052,0.2128,0.2,0.1993,0.2064,0.2057,0.2045,0.2035,0.2125,0.2124,0.2124,0.2123,0,0.122,0.1274,0.1317,0.1407,0.1441,0.1484,0.1585,0.1625,0.1721,0.1784,0.1818,0.192,0.1989,0.2053,0.2122,0.2076,0.2087,0.207,0.2158,0.2154,0.1945,0.1938,0.1972,0.1968,0.1965,0.1963,0.1961,0,0.1196,0.1216,0.1312,0.1342,0.1391,0.1467,0.1511,0.1614,0.1654,0.1779,0.1797,0.1901,0.1958,0.1964,0.2043,0.2076,0.2055,0.2048,0.1973,0.1939,0.193,0.1927,0.1924,0.1956,0.1955,0.1954,0.1954,0,0.1146,0.1194,0.1234,0.1294,0.1351,0.1395,0.1475,0.1487,0.1596,0.17,0.1729,0.1761,0.1838,0.1887,0.1935,0.1952,0.2038,0.2016,0.2021,0.1951,0.1921,0.1914,0.1914,0.1943,0.1945,0.1946,0.1946,0,0.1116,0.1127,0.1187,0.1229,0.129,0.13,0.135,0.1396,0.1444,0.1577,0.1589,0.1702,0.1812,0.1825,0.1868,0.1879,0.1844,0.1775,0.1792,0.1804,0.1716,0.1651,0.1588,0,0,0,0,0,0.107,0.1075,0.1114,0.1147,0.12,0.1233,0.1311,0.1362,0.1468,0.1445,0.1509,0.1568,0.1618,0.1687,0.1665,0.1807,0.1859,0.1774,0.1789,0.1886,0.1898,0.181,0,0,0,0,0,0,0.1038,0.1074,0.1085,0.107,0.1075,0.1117,0.1156,0.1227,0.1225,0.1341,0.1381,0.1478,0.156,0.1617,0.1637,0.1659,0.1636,0.1856,0.1852,0.188,0.1891,0.19,0.1814,0,0,0,0,0]},{"header":{"parameterUnit":"m.s-1","parameterCategory":2,"la1":30.2991,"la2":30.254,"lo1":-89.0895,"lo2":-89.0444,"dy":0.0017,"dx":0.0017,"nx":28,"ny":28,"refTime":"2025-11-30T09:00:00:Z","depth":"4","parameterNumber":3,"parameterNumberName":"V-component_of_CURRENTS"},"data":[0,0,0,0,0,0,0,0,0,0,0,0,0,0,0,0,0,0,0,0,0,0,0,0,0,0,0,0,0,0,0,0,0,0,0,0,0,0,0,0,0,0,0,0,0,0,0,0,0,0,0,0,0,0,0,0,0,0,0.0223,0.0223,0,0.0235,0.0235,0.0235,0.0241,0.0241,0.0241,0.0241,0.0197,0.0196,0.0195,0,0,0,0,0,0,0,0,0,0,0,0,0,0.0204,0.0204,0.0223,0.0223,0.0224,0.0235,0.0235,0.0235,0.0241,0.0241,0.0241,0.0241,0.0197,0.0196,0.0194,0,0,0,0,0,0,0,0,0,0,0,0,0,0.0213,0.0204,0.0223,0.0228,0.0228,0.0235,0.0235,0.0235,0.0241,0.0241,0.0241,0.0241,0.0198,0.0196,0.0194,0.0183,0,0,0.0189,0.0188,0,0,0,0,0,0,0,0,0.0213,0.0214,0.0227,0.0227,0.0228,0.0237,0.0212,0.0215,0.0241,0.0236,0.0241,0.0241,0.0205,0.0203,0.0205,0.0181,0.0179,0.0189,0.0188,0.0187,0.0186,0,0,0,0,0,0,0,0.0212,0.0214,0.0228,0.0227,0.0228,0.0229,0.023,0.0213,0.0219,0.0236,0.0237,0.0238,0.0205,0.0207,0.0204,0.0179,0.0189,0.0187,0.0186,0.0185,0.0139,0.0139,0,0,0,0,0,0,0.0211,0.0213,0.0227,0.0228,0.0221,0.0229,0.0231,0.0234,0.022,0.0219,0.0238,0.0238,0.021,0.0206,0.0203,0.0189,0.0187,0.0185,0.0184,0.0139,0.0139,0.0139,0,0,0,0,0,0,0.0211,0.0213,0.0227,0.0221,0.0223,0.0229,0.0233,0.0234,0.0239,0.0223,0.022,0.0243,0.021,0.0205,0.0188,0.0187,0.0184,0.0183,0.0139,0.0139,0.0139,0.0161,0,0,0,0,0,0,0.021,0.0212,0.0219,0.0221,0.0223,0.0232,0.0233,0.0234,0.024,0.024,0.0225,0.0221,0.021,0.0191,0.0187,0.0185,0.0182,0.014,0.0139,0.0139,0.0161,0.0162,0.0163,0,0,0,0,0,0.021,0.0222,0.0219,0.0221,0.0231,0.0232,0.0234,0.0238,0.024,0.0243,0.0231,0.0222,0.0186,0.019,0.0184,0.0182,0.014,0.0139,0.0139,0.016,0.0162,0.0163,0,0,0,0,0,0,0.0223,0.0224,0.0221,0.0234,0.0232,0.0233,0.0242,0.024,0.0235,0.0237,0.0219,0.0214,0.0199,0.0186,0.0191,0.0167,0.0161,0.016,0.0179,0.018,0.0181,0.0192,0.018,0,0,0,0,0,0.0226,0.0234,0.023,0.0241,0.0241,0.024,0.0244,0.0244,0.0239,0.0238,0.0227,0.0212,0.0193,0.0184,0.0168,0.0155,0.0135,0.0149,0.015,0.0151,0.0156,0.0127,0.0126,0.0137,0.0137,0.0137,0,0,0.0234,0.0237,0.0241,0.0244,0.0245,0.0249,0.0243,0.025,0.0254,0.0232,0.0236,0.0215,0.019,0.0176,0.0168,0.0166,0.0135,0.015,0.0151,0.0156,0.0126,0.0125,0.0124,0.0137,0.0137,0.0137,0,0,0.0254,0.0255,0.0266,0.0264,0.0266,0.0262,0.0264,0.0263,0.0264,0.0256,0.0243,0.0222,0.0198,0.0182,0.0169,0.0164,0.0141,0.0158,0.0172,0.0144,0.0143,0.0142,0.0106,0.0101,0.0159,0.0159,0.0159,0,0.0265,0.0277,0.027,0.0278,0.0282,0.0268,0.0278,0.0275,0.027,0.027,0.0259,0.0223,0.02,0.0181,0.0179,0.0166,0.0145,0.0171,0.0145,0.0144,0.0142,0.0106,0.0101,0.016,0.016,0.016,0.016,0,0.0287,0.0297,0.0304,0.0308,0.0308,0.0316,0.0306,0.0306,0.0299,0.0293,0.0275,0.0241,0.0219,0.0205,0.0188,0.0169,0.0155,0.015,0.0145,0.0143,0.0104,0.0098,0.0162,0.0161,0.0161,0.0161,0,0,0.0316,0.032,0.0324,0.0331,0.0327,0.0332,0.0332,0.0331,0.0336,0.0313,0.0312,0.027,0.0252,0.0235,0.021,0.0183,0.0146,0.0165,0.0163,0.0133,0.0077,0.0073,0.0066,0.0138,0.0138,0.0137,0.0052,0,0.0338,0.0361,0.0355,0.0375,0.0384,0.037,0.0375,0.037,0.0356,0.035,0.0309,0.0294,0.0263,0.025,0.0218,0.0169,0.0133,0.0169,0.0081,0.0078,0.0078,0.006,0.0135,0.0047,0.0046,0.0045,0.0044,0,0.0363,0.0376,0.04,0.0411,0.0415,0.0423,0.0428,0.0429,0.0409,0.0396,0.0367,0.0337,0.0293,0.0267,0.0176,0.0201,0.0141,0.0097,0.0093,0.008,0.0063,0.0051,0.0033,0.0034,0.0035,0.0035,0.0036,0,0.0392,0.041,0.0432,0.0435,0.0442,0.0453,0.0456,0.0447,0.0455,0.0426,0.0424,0.0364,0.0338,0.0258,0.0167,0.017,0.0065,0.0055,-0.001,-0.0012,0.0009,0.0011,-0.0015,-0.0015,-0.0015,-0.0015,-0.0014,0,0.0418,0.0438,0.0449,0.0462,0.0493,0.0484,0.0511,0.0502,0.0495,0.0508,0.0453,0.0444,0.0336,0.0267,0.0175,0.0066,0.0066,-0.0012,-0.0033,0.0018,0.0022,0.0004,0.0007,-0.0018,-0.0017,-0.0017,-0.0016,0,0.0443,0.045,0.048,0.0498,0.0508,0.0529,0.0554,0.0569,0.0557,0.0567,0.0561,0.05,0.0408,0.0295,0.016,0.0083,-0.0025,-0.0066,-0.0008,-0.0024,-0.0089,-0.0084,-0.0152,-0.0153,-0.0153,-0.0154,-0.0154,0,0.0456,0.0473,0.0512,0.0535,0.0546,0.0576,0.06,0.0599,0.0618,0.0605,0.0614,0.0535,0.0479,0.0286,0.0162,-0.0023,-0.0047,-0.0112,-0.01,-0.0089,-0.0103,-0.0096,-0.009,-0.0156,-0.0156,-0.0156,-0.0156,0,0.048,0.0497,0.0523,0.0573,0.0606,0.0643,0.0677,0.0691,0.0692,0.0685,0.065,0.0549,0.0444,0.0291,0.0147,0.0018,-0.0074,-0.012,-0.012,-0.0109,-0.0095,-0.0106,-0.0099,-0.0159,-0.0158,-0.0158,-0.0158,0,0.0505,0.0528,0.0568,0.0607,0.0652,0.0695,0.0708,0.0721,0.0731,0.0709,0.0696,0.0577,0.0506,0.0312,0.0183,0.0052,0.0016,-0.0032,-0.0037,-0.0036,0.0026,0.0063,0.0026,0,0,0,0,0,0.0527,0.0557,0.0597,0.0644,0.0687,0.0717,0.0754,0.0761,0.076,0.0739,0.0716,0.0615,0.0419,0.034,0.0207,0.0168,-0.0006,0.0007,-0.0063,-0.0172,-0.0169,-0.0117,0,0,0,0,0,0,0.0548,0.0591,0.0603,0.0663,0.0699,0.0753,0.0779,0.0779,0.0764,0.0742,0.0643,0.0582,0.0396,0.05,0.0207,0.0167,0.0103,-0.0085,-0.0088,-0.0174,-0.0171,-0.0169,-0.0114,0,0,0,0,0]}]]